Weather History for Dickinson, ND

Change the Weather History Date:

Saturday, January 19, 2013

  Actual Average Record
Temperature  
Mean Temperature 20 °F 16 °F  
Max Temperature 35 °F 26 °F 57 °F (1919)
Min Temperature 4 °F 6 °F -36 °F (1943)
Degree Days  
Heating Degree Days 45 49  
Month to date heating degree days 844 931  
Since 1 July heating degree days 4235 4468  
Cooling Degree Days 0 0  
Month to date cooling degree days 0 0  
Year to date cooling degree days 0 0  
Moisture  
Dew Point 11 °F    
Average Humidity 77    
Maximum Humidity 88    
Minimum Humidity 66    
Precipitation  
Precipitation 0.01 in 0.01 in 0.07 in (1951)
Month to date precipitation 0.02 0.20  
Year to date precipitation 0.02 0.20  
Sea Level Pressure  
Sea Level Pressure 30.15 in    
Wind  
Wind Speed 13 mph (NW)    
Max Wind Speed 29 mph    
Max Gust Speed 36 mph    
Visibility 6 miles    
Events Snow    
T = Trace of Precipitation, MM = Missing Value Source: NWS Daily Summary

Daily Weather History Graph

Daily Weather History Graph

Search for Another Location

Airport:

Trip Planner

Search our weather history database for the weather conditions in past years. The results will help you decide how hot, cold, wet, or windy it might be!

Date:

Astronomy

Jan. 19, 2013 Rise Set
Actual Time 7:28 AM MST 4:35 PM MST
Civil Twilight 6:55 AM MST 5:09 PM MST
Nautical Twilight 6:17 AM MST 5:46 PM MST
Astronomical Twilight 5:41 AM MST 6:22 PM MST
Moon 11:07 AM MST 12:59 AM MST
Length of Visible Light 10h 14m
Length of Day
9h 07m
First Quarter, 58% of the Moon is Illuminated
Jan 19
First Quarter
Jan 26
Full
Feb 3
Last Quarter
Feb 10
New
Feb 17
First Quarter

Hourly Weather History & Observations

Time (MST) Temp. Windchill Dew Point Humidity Pressure Visibility Wind Dir Wind Speed Gust Speed Precip Events Conditions
12:56 AM 35.1 °F 25.2 °F 27.0 °F 72% 29.83 in 10.0 mi West 16.1 mph - N/A   Mostly Cloudy
1:56 AM 35.1 °F 24.5 °F 28.0 °F 76% 29.88 in 10.0 mi WNW 18.4 mph - N/A   Overcast
2:56 AM 34.0 °F 24.6 °F 27.0 °F 75% 29.89 in 10.0 mi West 13.8 mph - N/A   Overcast
3:56 AM 32.0 °F 22.5 °F 26.1 °F 79% 29.92 in 10.0 mi West 12.7 mph - N/A   Partly Cloudy
4:56 AM 33.1 °F 22.2 °F 28.0 °F 82% 29.94 in 10.0 mi WNW 17.3 mph - N/A   Overcast
5:56 AM 33.1 °F 23.0 °F 28.0 °F 82% 29.96 in 10.0 mi WNW 15.0 mph - N/A   Overcast
6:56 AM 34.0 °F 23.0 °F 28.0 °F 79% 29.99 in 10.0 mi WNW 18.4 mph 24.2 mph 0.00 in Snow Light Snow
7:18 AM 33.8 °F 21.6 °F 28.4 °F 81% 29.95 in 2.5 mi NW 23.0 mph 27.6 mph 0.00 in Snow Light Snow
7:26 AM 28.4 °F 14.7 °F 24.8 °F 86% 29.97 in 1.2 mi NNW 21.9 mph 35.7 mph 0.00 in Snow Light Snow
7:29 AM 26.6 °F 11.7 °F 23.0 °F 86% 29.97 in 2.0 mi NNW 24.2 mph 35.7 mph 0.00 in Snow Light Snow
7:37 AM 26.6 °F 12.4 °F 21.2 °F 80% 29.98 in 5.0 mi NNW 21.9 mph 32.2 mph 0.00 in Snow Light Snow
7:47 AM 26.6 °F 13.8 °F 21.2 °F 80% 29.99 in 6.0 mi NNW 17.3 mph 29.9 mph 0.00 in Snow Light Snow
7:54 AM 26.6 °F 13.8 °F 21.2 °F 80% 30.00 in 4.0 mi NNW 17.3 mph 27.6 mph 0.00 in Snow Light Snow
7:56 AM 25.0 °F 10.9 °F 21.9 °F 88% 30.09 in 3.0 mi NNW 19.6 mph 27.6 mph 0.00 in Snow Light Snow
8:18 AM 24.8 °F 11.5 °F 21.2 °F 86% 30.02 in 4.0 mi NNW 17.3 mph 27.6 mph 0.00 in Snow Light Snow
8:43 AM 21.2 °F 7.8 °F 17.6 °F 86% 30.05 in 5.0 mi NNW 15.0 mph - 0.00 in Snow Light Snow
8:56 AM 19.9 °F 4.8 °F 16.0 °F 85% 30.16 in 5.0 mi NNW 18.4 mph - 0.00 in Snow Light Snow
9:39 AM 17.6 °F 0.9 °F 12.2 °F 79% 30.11 in 10.0 mi NNW 20.7 mph 29.9 mph 0.00 in   Mostly Cloudy
9:56 AM 17.1 °F -0.3 °F 12.0 °F 81% 30.22 in 9.0 mi NNW 21.9 mph 29.9 mph 0.00 in Snow Light Snow
10:25 AM 15.8 °F -1.9 °F 8.6 °F 73% 30.15 in 10.0 mi NNW 21.9 mph 33.4 mph 0.00 in   Overcast
10:45 AM 15.8 °F -3.4 °F 8.6 °F 73% 30.16 in 4.0 mi NNW 26.5 mph 34.5 mph 0.00 in Snow Light Snow
10:56 AM 15.1 °F -4.0 °F 9.0 °F 77% 30.27 in 4.0 mi NNW 25.3 mph 32.2 mph 0.00 in Snow Light Snow
11:04 AM 15.8 °F -2.7 °F 8.6 °F 73% 30.17 in 3.0 mi NNW 24.2 mph 32.2 mph 0.00 in Snow Light Snow
11:30 AM 15.8 °F -2.3 °F 6.8 °F 68% 30.17 in 10.0 mi NNW 23.0 mph 32.2 mph 0.00 in   Overcast
11:56 AM 14.0 °F -5.5 °F 7.0 °F 74% 30.28 in 8.0 mi NNW 25.3 mph 34.5 mph 0.00 in Snow Light Snow
12:56 PM 12.0 °F -6.9 °F 5.0 °F 73% 30.30 in 10.0 mi NNW 21.9 mph - 0.00 in   Partly Cloudy
1:56 PM 10.9 °F -6.5 °F 1.9 °F 67% 30.34 in 10.0 mi NNW 17.3 mph 23.0 mph N/A   Clear
2:56 PM 9.0 °F -11.0 °F 1.0 °F 70% 30.35 in 10.0 mi NNW 21.9 mph - N/A   Clear
3:56 PM 7.0 °F -9.1 °F -0.9 °F 70% 30.36 in 10.0 mi NNW 12.7 mph - N/A   Clear
4:56 PM 5.0 °F -9.1 °F -2.0 °F 73% 30.38 in 10.0 mi NNW 9.2 mph - N/A   Clear
5:56 PM 3.9 °F - -2.0 °F 76% 30.35 in 10.0 mi Calm Calm - N/A   Scattered Clouds
6:56 PM 6.1 °F -0.9 °F -0.0 °F 76% 30.37 in 10.0 mi WNW 3.5 mph - N/A   Overcast
7:56 PM 6.1 °F -0.9 °F -0.0 °F 76% 30.36 in 10.0 mi NW 3.5 mph - N/A   Overcast
8:56 PM 7.0 °F - 1.9 °F 80% 30.36 in 10.0 mi Calm Calm - N/A   Overcast
9:46 PM 8.6 °F - 3.2 °F 79% 30.20 in 2.5 mi Calm Calm - 0.00 in Snow Light Snow
9:53 PM 8.6 °F - 3.2 °F 79% 30.19 in 3.0 mi Calm Calm - 0.00 in Snow Light Snow
9:56 PM 8.1 °F - 3.9 °F 83% 30.34 in 3.0 mi Calm Calm - 0.00 in Snow Light Snow
10:27 PM 8.6 °F - 3.2 °F 79% 30.18 in 2.0 mi Calm Calm - 0.00 in Snow Light Snow
10:34 PM 8.6 °F - 3.2 °F 79% 30.18 in 1.8 mi Calm Calm - 0.00 in Snow Light Snow
10:40 PM 8.6 °F - 3.2 °F 79% 30.18 in 2.0 mi Calm Calm - 0.00 in Snow Light Snow
10:46 PM 8.6 °F - 5.0 °F 85% 30.17 in 4.0 mi Calm Calm - 0.00 in Snow Light Snow
10:56 PM 9.0 °F - 3.9 °F 80% 30.33 in 2.0 mi Calm Calm - 0.00 in Snow Light Snow
11:04 PM 8.6 °F - 5.0 °F 85% 30.17 in 1.5 mi Calm Calm - 0.00 in Snow Light Snow
11:22 PM 8.6 °F - 5.0 °F 85% 30.17 in 1.0 mi Calm Calm - 0.01 in Snow Light Snow
11:34 PM 8.6 °F - 5.0 °F 85% 30.17 in 1.5 mi Calm Calm - 0.01 in Snow Light Snow
11:41 PM 8.6 °F - 5.0 °F 85% 30.17 in 3.0 mi Calm Calm - 0.01 in Snow Light Snow
11:56 PM 9.0 °F - 5.0 °F 84% 30.32 in 2.5 mi Calm Calm - 0.01 in Snow Light Snow